Akron, CO

10:37 AM MDT on July 20, 2017 (GMT -0600)
Akron-Washington County

Weather History for KAKO - January, 2014

Change the Weather History Date:

Wednesday, January 15, 2014

  Actual Average Record
Temperature  
Mean Temperature 36 °F 29 °F  
Max Temperature 52 °F 40 °F 65 °F (1995)
Min Temperature 20 °F 17 °F -10 °F (1972)
Degree Days  
Heating Degree Days 29    
Month to date heating degree days 552  
Cooling Degree Days 0    
Month to date cooling degree days 0  
Moisture  
Dew Point 18 °F    
Average Humidity 60    
Maximum Humidity 91    
Minimum Humidity 28    
Precipitation  
Precipitation 0.00 in 0.01 in 0.21 in (1953)
Month to date precipitation 0.09 0.12  
Year to date precipitation 0.09 0.12  
Sea Level Pressure  
Sea Level Pressure 30.13 in    
Wind  
Wind Speed 13 mph (West)    
Max Wind Speed 25 mph    
Max Gust Speed 31 mph    
Visibility 10 miles    
Events      
T = Trace of Precipitation, MM = Missing Value Source: NWS Daily Summary

Daily Weather History Graph

Daily Weather History Graph

Search for Another Location

Airport or City:

Trip Planner

Search our weather history database for the weather conditions in past years. The results will help you decide how hot, cold, wet, or windy it might be!

Date:

Astronomy

Jan. 15, 2014 Rise Set
Actual Time 7:13 AM MST 4:51 PM MST
Civil Twilight 6:43 AM MST 5:21 PM MST
Nautical Twilight 6:10 AM MST 5:55 PM MST
Astronomical Twilight 5:37 AM MST 6:27 PM MST
Moon 4:51 PM MST (1/15) 6:30 AM MST (1/15)
Length of Visible Light 10h 38m
Length of Day
9h 38m
Full, 100% of the Moon is Illuminated
Jan 15
Full
Jan 15
Full
Jan 23
Last Quarter
Jan 30
New
Feb 6
First Quarter

Hourly Weather History & Observations

Time (MST) Temp. Windchill Dew Point Humidity Pressure Visibility Wind Dir Wind Speed Gust Speed Precip Events Conditions
12:53 AM 27.0 °F 15.2 °F 18.0 °F 69% 30.30 in 10.0 mi West 15.0 mph - N/A   Overcast
1:53 AM 24.1 °F 12.5 °F 18.0 °F 77% 30.29 in 10.0 mi West 12.7 mph - N/A   Overcast
2:53 AM 21.9 °F 9.2 °F 17.1 °F 82% 30.29 in 10.0 mi West 13.8 mph - N/A   Clear
3:53 AM 19.9 °F 8.6 °F 17.1 °F 89% 30.29 in 10.0 mi WSW 10.4 mph - N/A   Clear
4:53 AM 23.0 °F 11.1 °F 17.1 °F 78% 30.26 in 10.0 mi SW 12.7 mph - N/A   Clear
5:53 AM 25.0 °F 14.2 °F 17.1 °F 72% 30.25 in 10.0 mi SW 11.5 mph - N/A   Clear
6:53 AM 28.9 °F 19.8 °F 18.0 °F 64% 30.21 in 10.0 mi WSW 10.4 mph - N/A   Clear
7:53 AM 32.0 °F 23.0 °F 19.0 °F 59% 30.18 in 10.0 mi SSW 11.5 mph - N/A   Clear
8:53 AM 33.1 °F 23.0 °F 18.0 °F 54% 30.19 in 10.0 mi SW 15.0 mph - N/A   Clear
9:53 AM 39.9 °F 32.9 °F 18.0 °F 41% 30.16 in 10.0 mi WSW 11.5 mph - N/A   Clear
10:53 AM 43.0 °F 36.4 °F 19.0 °F 38% 30.12 in 10.0 mi WSW 12.7 mph - N/A   Clear
11:53 AM 44.1 °F 38.1 °F 19.9 °F 38% 30.09 in 10.0 mi West 11.5 mph - N/A   Clear
12:53 PM 48.9 °F - 19.0 °F 31% 30.03 in 10.0 mi West 13.8 mph - N/A   Clear
1:53 PM 52.0 °F - 19.0 °F 27% 29.99 in 10.0 mi WNW 15.0 mph - N/A   Clear
2:53 PM 50.0 °F - 19.9 °F 31% 30.00 in 10.0 mi West 11.5 mph - N/A   Clear
3:53 PM 50.0 °F - 19.9 °F 31% 30.01 in 10.0 mi WNW 17.3 mph - N/A   Clear
4:53 PM 44.1 °F 37.7 °F 19.0 °F 37% 30.04 in 10.0 mi NW 12.7 mph - N/A   Partly Cloudy
5:53 PM 43.0 °F 36.0 °F 18.0 °F 37% 30.04 in 10.0 mi NW 13.8 mph - N/A   Clear
6:53 PM 42.1 °F 33.9 °F 19.0 °F 40% 30.03 in 10.0 mi NW 17.3 mph - N/A   Clear
7:53 PM 43.0 °F 34.2 °F 17.1 °F 35% 30.02 in 10.0 mi NW 20.7 mph - N/A   Clear
8:53 PM 41.0 °F 32.5 °F 15.1 °F 35% 30.04 in 10.0 mi NW 17.3 mph - N/A   Clear
9:53 PM 28.9 °F 18.6 °F 15.1 °F 56% 30.08 in 10.0 mi West 12.7 mph - N/A   Clear
10:53 PM 32.0 °F 24.2 °F 15.1 °F 50% 30.06 in 10.0 mi WNW 9.2 mph - N/A   Clear
11:53 PM 36.0 °F 28.5 °F 15.1 °F 43% 30.05 in 10.0 mi WNW 10.4 mph - N/A   Clear